Location: Unspecified
(0.0000°N, 0.0000°E)
Time: 02:09:48
(UTC+00:00)

METEOR M2 - Visible Passes

Search period start: 27 November 2022 00:00
Search period end: 07 December 2022 00:00
Orbit: 819 x 826 km, 98.4° (Epoch: 26 November)

Date Brightness Start Highest point End Pass type
(mag) Time Alt. Az. Time Alt. Az. Time Alt. Az.
27 Nov ? 18:43:48 10° S 18:48:52 43° WSW 18:53:56 10° NNW visible
28 Nov ? 18:23:36 10° S 18:28:58 74° WSW 18:34:19 10° NNW visible
29 Nov ? 18:03:44 10° SSE 18:09:04 65° ENE 18:14:23 10° N visible
30 Nov ? 05:07:09 10° E 05:09:09 12° ESE 05:11:10 10° SE visible
30 Nov ? 19:26:18 10° SW 19:29:02 14° WSW 19:31:46 10° WNW visible
01 Dec ? 19:04:52 10° SSW 19:09:09 24° WSW 19:13:27 10° NW visible
02 Dec ? 18:44:13 10° S 18:49:15 42° WSW 18:54:18 10° NNW visible
03 Dec ? 18:23:59 10° S 18:29:21 72° WSW 18:34:43 10° NNW visible
05 Dec ? 05:07:21 10° ENE 05:09:32 12° ESE 05:11:42 10° SE visible
05 Dec ? 19:26:49 10° SW 19:29:25 14° WSW 19:32:02 10° WNW visible
06 Dec ? 19:05:18 10° SSW 19:09:32 24° WSW 19:13:46 10° NW visible
